Weather History for Billings, MT

Change the Weather History Date:

Friday, March 29, 2013

  Actual Average Record
Temperature  
Mean Temperature 52 °F 41 °F  
Max Temperature 63 °F 52 °F 76 °F (1978)
Min Temperature 40 °F 30 °F -5 °F (1987)
Degree Days  
Heating Degree Days 13 24  
Month to date heating degree days 811 798  
Since 1 July heating degree days 5372 5763  
Cooling Degree Days 0 0  
Month to date cooling degree days 0 0  
Year to date cooling degree days 0 0  
Growing Degree Days 2 (Base 50)    
Moisture  
Dew Point 31 °F    
Average Humidity 54    
Maximum Humidity 76    
Minimum Humidity 32    
Precipitation  
Precipitation 0.01 in 0.05 in 1.13 in (2006)
Month to date precipitation 0.26 0.97  
Year to date precipitation 1.14 1.93  
Snow  
Snow 0.00 in 0.40 in 5.50 in (1977)
Month to date snowfall 2.7 9.5  
Since 1 July snowfall 34.8 44.0  
Snow Depth 0.00 in    
Sea Level Pressure  
Sea Level Pressure 30.05 in    
Wind  
Wind Speed 12 mph (WSW)    
Max Wind Speed 33 mph    
Max Gust Speed 41 mph    
Visibility 10 miles    
Events Rain    
T = Trace of Precipitation, MM = Missing Value Source: NWS Daily Summary

Daily Weather History Graph

Daily Weather History Graph

Search for Another Location

Airport:

Trip Planner

Search our weather history database for the weather conditions in past years. The results will help you decide how hot, cold, wet, or windy it might be!

Date:

Astronomy

Mar. 29, 2013 Rise Set
Actual Time 6:59 AM MDT 7:39 PM MDT
Civil Twilight 6:29 AM MDT 8:09 PM MDT
Nautical Twilight 5:53 AM MDT 8:44 PM MDT
Astronomical Twilight 5:16 AM MDT 9:22 PM MDT
Moon 10:53 PM MDT (3/29) 8:01 AM MDT (3/29)
Length of Visible Light 13h 39m
Length of Day
12h 39m
Waning Gibbous, 93% of the Moon is Illuminated
Mar 29
Waning Gibbous
Apr 2
Last Quarter
Apr 10
New
Apr 18
First Quarter
Apr 25
Full

Hourly Weather History & Observations

Time (MDT) Temp. Windchill Dew Point Humidity Pressure Visibility Wind Dir Wind Speed Gust Speed Precip Events Conditions
12:53 AM 48.0 °F - 25.0 °F 41% 29.99 in 10.0 mi Calm Calm - N/A   Mostly Cloudy
1:53 AM 43.0 °F 37.2 °F 23.0 °F 45% 29.99 in 10.0 mi SSW 10.4 mph - N/A   Partly Cloudy
2:53 AM 43.0 °F 36.8 °F 25.0 °F 49% 30.00 in 10.0 mi WNW 11.5 mph - N/A   Mostly Cloudy
3:53 AM 44.1 °F 41.5 °F 25.0 °F 47% 30.00 in 10.0 mi WSW 4.6 mph - N/A   Overcast
4:53 AM 44.1 °F 38.6 °F 26.1 °F 49% 30.01 in 10.0 mi WNW 10.4 mph - N/A   Scattered Clouds
5:53 AM 41.0 °F 34.7 °F 24.1 °F 51% 30.03 in 10.0 mi SW 10.4 mph - N/A   Mostly Cloudy
6:53 AM 42.1 °F 33.9 °F 24.1 °F 49% 30.04 in 10.0 mi SW 17.3 mph - N/A   Scattered Clouds
7:53 AM 42.1 °F 34.9 °F 25.0 °F 51% 30.06 in 10.0 mi SW 13.8 mph - 0.00 in   Mostly Cloudy
8:53 AM 44.1 °F 37.7 °F 25.0 °F 47% 30.07 in 10.0 mi SW 12.7 mph - N/A   Mostly Cloudy
9:53 AM 48.0 °F - 27.0 °F 44% 30.06 in 10.0 mi SSW 11.5 mph - N/A   Scattered Clouds
10:53 AM 55.9 °F - 30.0 °F 37% 30.06 in 10.0 mi West 8.1 mph - N/A   Partly Cloudy
11:53 AM 57.9 °F - 30.0 °F 35% 30.05 in 10.0 mi SW 6.9 mph - N/A   Mostly Cloudy
12:53 PM 59.0 °F - 30.9 °F 35% 30.04 in 10.0 mi SW 15.0 mph 21.9 mph N/A   Mostly Cloudy
1:49 PM 60.8 °F - 30.2 °F 31% 30.05 in 10.0 mi West 12.7 mph - N/A   Mostly Cloudy
1:53 PM 61.0 °F - 30.9 °F 32% 30.04 in 10.0 mi WNW 11.5 mph - N/A   Mostly Cloudy
1:55 PM 61.0 °F - 30.9 °F 32% 30.05 in 10.0 mi West 12.7 mph - N/A   Mostly Cloudy
2:53 PM 55.9 °F - 37.9 °F 51% 30.04 in 10.0 mi North 15.0 mph 26.5 mph 0.00 in   Mostly Cloudy
3:00 PM 57.9 °F - 36.0 °F 44% 30.04 in 10.0 mi North 15.0 mph - N/A   Mostly Cloudy
3:53 PM 61.0 °F - 30.0 °F 31% 30.01 in 10.0 mi NNW 15.0 mph - N/A   Mostly Cloudy
4:53 PM 57.9 °F - 30.0 °F 35% 30.04 in 10.0 mi West 17.3 mph 27.6 mph 0.00 in Rain Light Rain
5:04 PM 57.0 °F - 30.0 °F 36% 30.05 in 10.0 mi WNW 16.1 mph 27.6 mph 0.00 in Rain Light Rain
5:53 PM 55.9 °F - 27.0 °F 33% 30.07 in 10.0 mi NNW 24.2 mph 34.5 mph 0.00 in   Overcast
6:07 PM 51.1 °F - 35.1 °F 54% 30.09 in 10.0 mi NW 20.7 mph 39.1 mph 0.00 in Rain Light Rain
6:53 PM 51.1 °F - 36.0 °F 56% 30.08 in 10.0 mi SSW 10.4 mph - 0.01 in   Overcast
7:53 PM 48.9 °F - 37.0 °F 64% 30.09 in 10.0 mi SW 12.7 mph - N/A   Scattered Clouds
8:53 PM 46.9 °F - 37.9 °F 71% 30.10 in 10.0 mi WSW 13.8 mph - N/A   Scattered Clouds
9:53 PM 46.0 °F 39.9 °F 37.9 °F 73% 30.11 in 10.0 mi WSW 13.8 mph - N/A   Scattered Clouds
10:53 PM 46.0 °F 41.9 °F 37.9 °F 73% 30.09 in 10.0 mi WSW 8.1 mph - N/A   Mostly Cloudy
11:53 PM 45.0 °F 41.2 °F 37.9 °F 76% 30.10 in 10.0 mi WSW 6.9 mph - N/A   Mostly Cloudy